APSTAR 6D

Last updated on Oct. 31, 2020, 5:53 a.m. UTC

1 45863U 20045A   20304.89214801 -.00000311  00000-0  10000-3 0  9999
2 45863   0.0589 110.5789 0001458  70.9795 313.3047  1.00275036  1259
UTC
Height (km)
Latitude
Longitude
Inclination
Orbital Period
UTC large
Height (km)
Speed (km/s)
/
Latitude / Longitude
Inclination (degrees)
Orbital Period (minutes)
Azimuth
Elevation
Range (km)
Doppler Factor
iOS Compass Heading
iOS Angle

Next 30 passes for location: Hong Kong

Rise time Rise Azimuth (degrees) Set time Set Azimuth (degrees) Duration Max altitude (degrees)

No matching passes for this satellites